sat.trackr.live / text

‹ back to catalog

STARLINK-34153

NORAD 63967 · 2025-099R

PAYLOAD ACTIVE UNKNOWN

§ Identity

Operator
Country
US
Launch date
2025-05-13
Launch site
AFETR
Launch vehicle
Mass (kg)
RCS (m²)

Purposes: comms

External: N2YO · Heavens-Above · Gunter

§ Orbital elements

Epoch: 2026-05-25T03:36:00.177984Z

Period
94.27 min
Inclination
43.0025°
Eccentricity
0.0001586
Mean motion
15.27575623 rev/d
Perigee alt
482.0 km
Apogee alt
484.2 km
Semi-major
6,861.2 km
B*
7.1318e-4
RAAN
104.0847°
Arg perigee
261.1427°
Mean anomaly
98.9245°
Rev number
5,903

§ Raw data

STARLINK-341531 63967U 25099R   26145.15000206  .00019412  00000+0  71318-3 0  99972 63967  43.0025 104.0847 0001586 261.1427  98.9245 15.27575623 59031

JSON: /api/v1/satellites/63967 · /tle

For live sub-satellite position, see the globe view (requires WebGL).

§ Visibility from observer

Set your observer location to see the next 7 days of passes ≥ 10°. The values pass through the URL so the page stays shareable.

No JS? Fill the form by hand. The geolocation button needs JavaScript.